[[{"header":{"parameterUnit":"m.s-1","parameterCategory":2,"la1":30.2991,"la2":30.254,"lo1":-89.0895,"lo2":-89.0444,"dy":0.0017,"dx":0.0017,"nx":28,"ny":28,"refTime":"2025-08-03T21:00:00:Z","depth":"0","parameterNumber":2,"parameterNumberName":"U-component_of_CURRENTS"},"data":[0,0,0,0,0,0,0,0,0,0,0,0,0,0,0,0,0,0,0,0,0,0,0,0,0,0,0,0,0,0,0,0,0,0,0,0,0,0,0,0,0,0,0,0,0,0,0,0,0,0,0,0,0,0,0,0,0,0,-0.3844,-0.3843,0,-0.3765,-0.3764,-0.3763,-0.3644,-0.3642,-0.364,-0.3638,-0.3458,-0.3455,-0.3452,0,0,0,0,0,0,0,0,0,0,0,0,0,-0.3635,-0.3641,-0.3844,-0.3843,-0.3842,-0.3765,-0.3764,-0.3763,-0.3644,-0.3642,-0.364,-0.3638,-0.3459,-0.3455,-0.3452,0,0,0,0,0,0,0,0,0,0,0,0,0,-0.3657,-0.3643,-0.3844,-0.3776,-0.3769,-0.3766,-0.3764,-0.3762,-0.3645,-0.3642,-0.3639,-0.3636,-0.346,-0.3456,-0.3451,-0.3479,0,0,-0.3437,-0.3435,0,0,0,0,0,0,0,0,-0.3656,-0.3664,-0.3786,-0.378,-0.3773,-0.3714,-0.3624,-0.3664,-0.3645,-0.3689,-0.3638,-0.3635,-0.3538,-0.3527,-0.3516,-0.3471,-0.3463,-0.3437,-0.3434,-0.3432,-0.3431,0,0,0,0,0,0,0,-0.3655,-0.3665,-0.381,-0.3786,-0.3778,-0.3662,-0.3664,-0.363,-0.3626,-0.3685,-0.3677,-0.3673,-0.3533,-0.3521,-0.3511,-0.3461,-0.3437,-0.3433,-0.343,-0.3428,-0.3448,-0.3451,0,0,0,0,0,0,-0.3688,-0.3667,-0.3812,-0.3808,-0.3709,-0.3669,-0.3671,-0.3733,-0.3629,-0.3612,-0.3676,-0.3668,-0.353,-0.3516,-0.3504,-0.3515,-0.3432,-0.3428,-0.3425,-0.3445,-0.3449,-0.3452,0,0,0,0,0,0,-0.3685,-0.3705,-0.3816,-0.3732,-0.3738,-0.3678,-0.3747,-0.3733,-0.3719,-0.3623,-0.3603,-0.3675,-0.3527,-0.351,-0.3492,-0.3507,-0.3426,-0.3422,-0.3441,-0.3446,-0.3451,-0.3548,0,0,0,0,0,0,-0.3681,-0.3706,-0.3756,-0.3738,-0.3745,-0.3818,-0.375,-0.3734,-0.3722,-0.3711,-0.3617,-0.3597,-0.3524,-0.35,-0.3487,-0.35,-0.3418,-0.3437,-0.3443,-0.3449,-0.354,-0.3555,-0.3568,0,0,0,0,0,-0.3675,-0.3759,-0.3762,-0.3777,-0.3822,-0.382,-0.3813,-0.3754,-0.3726,-0.3729,-0.3678,-0.36,-0.353,-0.3499,-0.3484,-0.3494,-0.3434,-0.3442,-0.3449,-0.3534,-0.3552,-0.3568,0,0,0,0,0,0,-0.3651,-0.3755,-0.3756,-0.3857,-0.3841,-0.3801,-0.3802,-0.3774,-0.374,-0.373,-0.3637,-0.3615,-0.3604,-0.356,-0.3529,-0.3528,-0.3472,-0.3476,-0.3542,-0.3558,-0.3572,-0.3531,-0.3414,0,0,0,0,0,-0.3688,-0.3796,-0.3821,-0.3882,-0.3896,-0.3857,-0.3849,-0.382,-0.3788,-0.3769,-0.3704,-0.3657,-0.3629,-0.3601,-0.3565,-0.3566,-0.3448,-0.3571,-0.3585,-0.3597,-0.356,-0.3381,-0.3371,-0.3477,-0.3477,-0.3476,0,0,-0.3667,-0.3754,-0.3793,-0.3886,-0.3872,-0.3886,-0.3844,-0.385,-0.3842,-0.3758,-0.3731,-0.37,-0.3645,-0.3638,-0.363,-0.3595,-0.3524,-0.3606,-0.3616,-0.3571,-0.3387,-0.3375,-0.3364,-0.3482,-0.3481,-0.348,0,0,-0.3648,-0.3787,-0.3834,-0.3874,-0.3905,-0.3913,-0.3926,-0.3911,-0.389,-0.3889,-0.3826,-0.381,-0.3765,-0.3717,-0.3693,-0.3772,-0.3607,-0.3776,-0.3795,-0.3624,-0.361,-0.3597,-0.3493,-0.3469,-0.3777,-0.3777,-0.3777,0,-0.3601,-0.3687,-0.3823,-0.3873,-0.3866,-0.3934,-0.3904,-0.395,-0.3916,-0.3864,-0.3893,-0.3794,-0.3797,-0.3725,-0.3791,-0.3794,-0.3674,-0.3729,-0.3631,-0.3615,-0.3599,-0.3494,-0.3467,-0.3783,-0.3782,-0.3781,-0.3781,0,-0.3594,-0.366,-0.3692,-0.3801,-0.3837,-0.3838,-0.3916,-0.3943,-0.3953,-0.3927,-0.3869,-0.3876,-0.3781,-0.3835,-0.3856,-0.3762,-0.371,-0.3665,-0.3567,-0.3592,-0.3485,-0.3454,-0.3791,-0.3789,-0.3787,-0.3786,0,0,-0.3445,-0.3634,-0.3632,-0.3616,-0.3785,-0.377,-0.3862,-0.3847,-0.379,-0.3858,-0.3714,-0.3818,-0.3783,-0.3759,-0.3766,-0.3697,-0.3589,-0.366,-0.3648,-0.3519,-0.3217,-0.3189,-0.3152,-0.3485,-0.3479,-0.3475,-0.3206,0,-0.3331,-0.3353,-0.3507,-0.3474,-0.3461,-0.3608,-0.3634,-0.3674,-0.3705,-0.3628,-0.3679,-0.359,-0.3766,-0.3698,-0.3675,-0.3585,-0.3501,-0.3667,-0.3243,-0.3231,-0.3167,-0.3112,-0.3023,-0.2772,-0.3174,-0.3169,-0.3165,0,-0.322,-0.3255,-0.3199,-0.3228,-0.3227,-0.3258,-0.3243,-0.3282,-0.3317,-0.3318,-0.3316,-0.3326,-0.3328,-0.3424,-0.3299,-0.3379,-0.3311,-0.3265,-0.3249,-0.3146,-0.3141,-0.2803,-0.2699,-0.2703,-0.3116,-0.312,-0.3124,0,-0.2945,-0.3003,-0.2924,-0.2958,-0.3057,-0.3035,-0.3078,-0.3142,-0.3147,-0.3107,-0.3078,-0.3039,-0.3023,-0.2936,-0.3036,-0.3085,-0.2839,-0.2858,-0.2758,-0.2757,-0.2559,-0.255,-0.2361,-0.2663,-0.2664,-0.2665,-0.2665,0,-0.2746,-0.2677,-0.2788,-0.2759,-0.2661,-0.279,-0.2707,-0.2765,-0.28,-0.2784,-0.2887,-0.286,-0.2893,-0.2843,-0.2863,-0.2756,-0.2693,-0.2718,-0.2651,-0.2607,-0.2606,-0.2503,-0.2561,-0.2655,-0.2657,-0.2659,-0.2661,0,-0.2482,-0.2544,-0.2488,-0.2543,-0.2553,-0.2497,-0.2596,-0.2555,-0.261,-0.2596,-0.2588,-0.2677,-0.262,-0.2652,-0.2504,-0.2536,-0.2361,-0.2369,-0.238,-0.232,-0.2224,-0.2293,-0.2002,-0.1939,-0.2139,-0.2136,-0.2134,0,-0.2347,-0.2296,-0.2349,-0.2344,-0.2387,-0.2363,-0.2376,-0.2461,-0.2482,-0.2524,-0.2503,-0.2457,-0.246,-0.2286,-0.2245,-0.2127,-0.2208,-0.1991,-0.2081,-0.2164,-0.2189,-0.2262,-0.2238,-0.188,-0.1876,-0.1873,-0.187,0,-0.2139,-0.2182,-0.2174,-0.2175,-0.2184,-0.219,-0.2226,-0.2222,-0.2329,-0.2328,-0.2322,-0.229,-0.2185,-0.2061,-0.1955,-0.1898,-0.1954,-0.1914,-0.1928,-0.1902,-0.2024,-0.1952,-0.2191,-0.1839,-0.1842,-0.1844,-0.1846,-0.1847,-0.2021,-0.1996,-0.2023,-0.2003,-0.2018,-0.2016,-0.1977,-0.2047,-0.2044,-0.2016,-0.2119,-0.2025,-0.1976,-0.1806,-0.1737,-0.1607,-0.169,-0.1583,-0.1639,-0.1691,-0.1682,-0.1909,-0.1542,-0.1543,-0.1544,-0.1546,-0.1546,0,-0.1873,-0.187,-0.1855,-0.1841,-0.1801,-0.1859,-0.1871,-0.181,-0.1772,-0.1744,-0.1725,-0.1717,-0.1617,-0.1565,-0.1467,-0.1383,-0.1362,-0.1363,-0.143,-0.1399,-0.1488,-0.1533,-0.1233,-0.1233,-0.1233,-0.1233,-0.1233,-0.1233,-0.18,-0.1739,-0.1735,-0.1623,-0.1615,-0.1526,-0.15,-0.1429,-0.1361,-0.1225,-0.1191,-0.1169,-0.1331,-0.1511,-0.1417,-0.1328,-0.1321,-0.127,-0.1308,-0.141,-0.1436,-0.1461,-0.1514,-0.1214,-0.1215,-0.1156,-0.1156,-0.1156]},{"header":{"parameterUnit":"m.s-1","parameterCategory":2,"la1":30.2991,"la2":30.254,"lo1":-89.0895,"lo2":-89.0444,"dy":0.0017,"dx":0.0017,"nx":28,"ny":28,"refTime":"2025-08-03T21:00:00:Z","depth":"0","parameterNumber":3,"parameterNumberName":"V-component_of_CURRENTS"},"data":[0,0,0,0,0,0,0,0,0,0,0,0,0,0,0,0,0,0,0,0,0,0,0,0,0,0,0,0,0,0,0,0,0,0,0,0,0,0,0,0,0,0,0,0,0,0,0,0,0,0,0,0,0,0,0,0,0,0,0.059,0.059,0,0.0599,0.0599,0.0599,0.0669,0.0671,0.0673,0.0674,0.0762,0.0762,0.0763,0,0,0,0,0,0,0,0,0,0,0,0,0,0.0461,0.0464,0.059,0.059,0.059,0.0599,0.0599,0.0599,0.0669,0.0671,0.0673,0.0675,0.0761,0.0762,0.0763,0,0,0,0,0,0,0,0,0,0,0,0,0,0.0498,0.0465,0.059,0.0626,0.063,0.0599,0.0599,0.0599,0.0668,0.0671,0.0674,0.0676,0.0761,0.0762,0.0763,0.0716,0,0,0.0766,0.0767,0,0,0,0,0,0,0,0,0.0496,0.0503,0.0621,0.0624,0.0627,0.0636,0.0585,0.0642,0.0668,0.0653,0.0674,0.0677,0.0725,0.0729,0.0723,0.072,0.0724,0.0766,0.0767,0.0767,0.0768,0,0,0,0,0,0,0,0.0493,0.0501,0.0593,0.0621,0.0625,0.0583,0.0593,0.0595,0.0675,0.0655,0.066,0.0661,0.0728,0.0722,0.0726,0.0725,0.0766,0.0767,0.0768,0.0768,0.0697,0.0694,0,0,0,0,0,0,0.05,0.05,0.0593,0.0593,0.0567,0.0584,0.0595,0.063,0.0674,0.0682,0.0658,0.0664,0.0719,0.0725,0.073,0.0684,0.0767,0.0768,0.0769,0.0699,0.0696,0.0693,0,0,0,0,0,0,0.0498,0.0509,0.0592,0.0544,0.0553,0.0585,0.0623,0.0629,0.0627,0.0676,0.0687,0.0651,0.0721,0.0728,0.0721,0.0688,0.0769,0.077,0.0702,0.0698,0.0695,0.0588,0,0,0,0,0,0,0.0494,0.0509,0.0516,0.0547,0.0556,0.0551,0.062,0.0627,0.0623,0.0631,0.0672,0.0683,0.0724,0.0718,0.0721,0.0691,0.077,0.0705,0.07,0.0696,0.0595,0.0581,0.0569,0,0,0,0,0,0.049,0.0471,0.0518,0.0527,0.0574,0.0548,0.0547,0.0578,0.062,0.0591,0.0631,0.0682,0.0691,0.0717,0.0721,0.069,0.0708,0.0702,0.0696,0.06,0.0584,0.057,0,0,0,0,0,0,0.0371,0.0478,0.0529,0.0534,0.054,0.056,0.0528,0.0563,0.0569,0.0582,0.0647,0.0658,0.0635,0.0668,0.0695,0.0653,0.0708,0.0703,0.0633,0.0618,0.0606,0.0625,0.0771,0,0,0,0,0,0.0364,0.0403,0.0464,0.0454,0.0465,0.05,0.0491,0.0516,0.0533,0.0539,0.0572,0.0602,0.0609,0.0621,0.0624,0.0601,0.0646,0.0582,0.057,0.0559,0.0574,0.0593,0.0585,0.0675,0.0675,0.0675,0,0,0.0298,0.0368,0.0379,0.0434,0.0447,0.0432,0.05,0.0474,0.0462,0.0545,0.0524,0.0549,0.0588,0.0562,0.0556,0.0593,0.0551,0.0552,0.0543,0.0565,0.0587,0.0578,0.0571,0.0671,0.0672,0.0672,0,0,0.0171,0.0267,0.0251,0.0278,0.0312,0.0347,0.0341,0.0367,0.0384,0.0365,0.0423,0.0437,0.0438,0.0472,0.0489,0.0406,0.0473,0.0394,0.036,0.0376,0.037,0.0365,0.0394,0.0393,0.04,0.04,0.0399,0,0.0084,0.0114,0.0218,0.0211,0.0226,0.0311,0.0273,0.029,0.0304,0.032,0.0342,0.0369,0.0402,0.0405,0.0382,0.0382,0.0404,0.0418,0.0363,0.0359,0.0356,0.0387,0.0387,0.0394,0.0394,0.0395,0.0396,0,-0.0041,-0.0013,-0.0034,0.0035,0.0049,0.0025,0.0097,0.0106,0.0154,0.0187,0.0191,0.0234,0.0267,0.0264,0.0304,0.0292,0.0316,0.0335,0.0408,0.0341,0.0377,0.0379,0.0385,0.0388,0.0389,0.0391,0,0,-0.0222,-0.0135,-0.0134,-0.0114,-0.0025,-0.0032,-0.0021,0.0014,0.0022,0.0055,0.0056,0.009,0.0145,0.0168,0.0213,0.0239,0.0232,0.0276,0.028,0.0318,0.0271,0.034,0.0349,0.0235,0.0235,0.0235,0.03,0,-0.0349,-0.0381,-0.0293,-0.033,-0.0328,-0.0205,-0.0206,-0.0151,-0.0095,-0.0079,0.0011,0.0012,0.0098,0.0102,0.0145,0.0199,0.0234,0.0214,0.0321,0.0325,0.0405,0.0353,0.041,0.0477,0.0303,0.0303,0.0304,0,-0.047,-0.0458,-0.0509,-0.0445,-0.0437,-0.0446,-0.0369,-0.0363,-0.0278,-0.0238,-0.0168,-0.0103,-0.004,0.0019,0.0133,0.011,0.019,0.0245,0.0248,0.0361,0.0398,0.0518,0.0489,0.066,0.0308,0.0307,0.0307,0,-0.0592,-0.0592,-0.0623,-0.0601,-0.0539,-0.0535,-0.0502,-0.0416,-0.0397,-0.0335,-0.0313,-0.0221,-0.0179,-0.0074,0.0095,0.0092,0.0217,0.0224,0.0371,0.0377,0.0476,0.0491,0.0644,0.0304,0.0304,0.0304,0.0304,0,-0.0697,-0.072,-0.0687,-0.0693,-0.0732,-0.065,-0.0668,-0.0611,-0.0552,-0.0528,-0.0407,-0.036,-0.0203,-0.0085,0.005,0.0236,0.0195,0.0369,0.0397,0.0437,0.0448,0.0645,0.0704,0.0306,0.0306,0.0305,0.0305,0,-0.0787,-0.0772,-0.0802,-0.078,-0.0779,-0.0798,-0.0754,-0.076,-0.0693,-0.0656,-0.0639,-0.0479,-0.0316,-0.0129,0.0045,0.0185,0.0454,0.0421,0.0471,0.0505,0.078,0.0829,0.1014,0.1119,0.0561,0.0563,0.0565,0,-0.0824,-0.0853,-0.0867,-0.0891,-0.088,-0.0894,-0.0897,-0.0834,-0.0819,-0.0701,-0.069,-0.0527,-0.0359,-0.006,0.0185,0.0431,0.0566,0.0624,0.0637,0.0814,0.0889,0.0926,0.1003,0.0717,0.072,0.0722,0.0724,0,-0.0883,-0.0893,-0.0912,-0.0972,-0.0995,-0.1013,-0.1008,-0.1017,-0.0926,-0.0833,-0.0688,-0.0551,-0.0251,0.0074,0.0389,0.054,0.0758,0.068,0.0847,0.1018,0.1084,0.1192,0.0661,0.0745,0.0743,0.0741,0.074,0.0739,-0.0914,-0.095,-0.0987,-0.1037,-0.1074,-0.1107,-0.1096,-0.1019,-0.0935,-0.0675,-0.0626,-0.0237,0.002,0.0483,0.064,0.1007,0.0951,0.1128,0.117,0.1189,0.1309,0.0835,0.0961,0.096,0.0959,0.0958,0.0958,0,-0.0941,-0.0984,-0.1045,-0.1104,-0.1153,-0.1151,-0.114,-0.1024,-0.0836,-0.0493,-0.0224,0.0285,0.0626,0.0915,0.13,0.1497,0.1534,0.1593,0.1662,0.1715,0.129,0.1318,0.1548,0.1547,0.1547,0.1547,0.1547,0.1547,-0.0955,-0.1018,-0.1055,-0.1145,-0.1186,-0.1179,-0.1151,-0.0866,-0.0574,0.0045,0.0538,0.0828,0.1116,0.1564,0.1926,0.1955,0.2136,0.2108,0.2201,0.1913,0.1873,0.1834,0.1879,0.2221,0.2222,0.2635,0.2639,0.2642]}],[{"header":{"parameterUnit":"m.s-1","parameterCategory":2,"la1":30.2991,"la2":30.254,"lo1":-89.0895,"lo2":-89.0444,"dy":0.0017,"dx":0.0017,"nx":28,"ny":28,"refTime":"2025-08-03T21:00:00:Z","depth":"2","parameterNumber":2,"parameterNumberName":"U-component_of_CURRENTS"},"data":[0,0,0,0,0,0,0,0,0,0,0,0,0,0,0,0,0,0,0,0,0,0,0,0,0,0,0,0,0,0,0,0,0,0,0,0,0,0,0,0,0,0,0,0,0,0,0,0,0,0,0,0,0,0,0,0,0,0,-0.2264,-0.2266,0,-0.2369,-0.2369,-0.237,-0.232,-0.2318,-0.2316,-0.2315,-0.2581,-0.2589,-0.2598,0,0,0,0,0,0,0,0,0,0,0,0,0,-0.2131,-0.2132,-0.2264,-0.2266,-0.2268,-0.2369,-0.2369,-0.237,-0.2321,-0.2318,-0.2316,-0.2314,-0.2578,-0.2588,-0.2599,0,0,0,0,0,0,0,0,0,0,0,0,0,-0.22,-0.2133,-0.2264,-0.2261,-0.2262,-0.2368,-0.2369,-0.237,-0.2321,-0.2318,-0.2315,-0.2313,-0.2574,-0.2587,-0.26,-0.2743,0,0,-0.2641,-0.2647,0,0,0,0,0,0,0,0,-0.2196,-0.2204,-0.2259,-0.2261,-0.2263,-0.2335,-0.242,-0.2506,-0.2322,-0.2291,-0.2315,-0.2311,-0.2521,-0.2538,-0.2552,-0.2756,-0.2767,-0.2643,-0.2651,-0.2656,-0.266,0,0,0,0,0,0,0,-0.2191,-0.22,-0.2298,-0.2262,-0.2264,-0.2293,-0.2297,-0.2435,-0.2419,-0.2294,-0.2292,-0.2316,-0.2521,-0.2539,-0.2558,-0.2771,-0.2642,-0.2654,-0.2662,-0.2668,-0.2945,-0.2944,0,0,0,0,0,0,-0.2191,-0.2196,-0.2295,-0.2302,-0.223,-0.2297,-0.2302,-0.2309,-0.2414,-0.2428,-0.2319,-0.2314,-0.2517,-0.2543,-0.2568,-0.2658,-0.2656,-0.2669,-0.2677,-0.2946,-0.2945,-0.2944,0,0,0,0,0,0,-0.2188,-0.2198,-0.2291,-0.2258,-0.2272,-0.2303,-0.2311,-0.2313,-0.2332,-0.2432,-0.2447,-0.2337,-0.2516,-0.2549,-0.2656,-0.2671,-0.2675,-0.2687,-0.2946,-0.2945,-0.2944,-0.2894,0,0,0,0,0,0,-0.2183,-0.2196,-0.2194,-0.2257,-0.2274,-0.2332,-0.2315,-0.2317,-0.2355,-0.2349,-0.2455,-0.2474,-0.2516,-0.2635,-0.2669,-0.2689,-0.2698,-0.2947,-0.2946,-0.2945,-0.2897,-0.2892,-0.2888,0,0,0,0,0,-0.2177,-0.2183,-0.2193,-0.2206,-0.2272,-0.2333,-0.2343,-0.2351,-0.2359,-0.2359,-0.2419,-0.2471,-0.2648,-0.2647,-0.2687,-0.2711,-0.2948,-0.2946,-0.2945,-0.2899,-0.2893,-0.2888,0,0,0,0,0,0,-0.2137,-0.2182,-0.2193,-0.2215,-0.2264,-0.2326,-0.2339,-0.237,-0.242,-0.2425,-0.2503,-0.2528,-0.262,-0.2676,-0.2672,-0.2776,-0.2794,-0.2801,-0.2746,-0.2741,-0.2737,-0.2668,-0.2709,0,0,0,0,0,-0.2132,-0.214,-0.2199,-0.2224,-0.2242,-0.2301,-0.2331,-0.2352,-0.2413,-0.2429,-0.2502,-0.2575,-0.265,-0.27,-0.2777,-0.2878,-0.2865,-0.2901,-0.2896,-0.2892,-0.2858,-0.2828,-0.2816,-0.2939,-0.2939,-0.2939,0,0,-0.2141,-0.2159,-0.2173,-0.2216,-0.2252,-0.2291,-0.2307,-0.236,-0.2386,-0.2466,-0.252,-0.259,-0.2674,-0.2742,-0.2787,-0.2792,-0.2856,-0.289,-0.2887,-0.2853,-0.2825,-0.2813,-0.2802,-0.2938,-0.2938,-0.2938,0,0,-0.2165,-0.2162,-0.2181,-0.2209,-0.2266,-0.2296,-0.2316,-0.2387,-0.2391,-0.25,-0.2516,-0.2567,-0.2744,-0.2733,-0.2774,-0.2801,-0.2838,-0.2846,-0.2776,-0.2749,-0.2738,-0.2728,-0.2713,-0.2702,-0.2836,-0.2835,-0.2835,0,-0.217,-0.2186,-0.2203,-0.2227,-0.2246,-0.2299,-0.2332,-0.236,-0.2455,-0.2464,-0.2513,-0.2646,-0.2724,-0.2736,-0.2721,-0.2791,-0.2785,-0.2799,-0.274,-0.273,-0.2721,-0.2707,-0.2696,-0.2833,-0.2833,-0.2833,-0.2834,0,-0.2208,-0.2218,-0.2231,-0.2259,-0.2289,-0.232,-0.2364,-0.2386,-0.2443,-0.2482,-0.2532,-0.2602,-0.266,-0.2693,-0.2738,-0.2694,-0.2717,-0.2745,-0.275,-0.2705,-0.2695,-0.2684,-0.2829,-0.283,-0.2831,-0.2831,0,0,-0.2203,-0.2246,-0.2245,-0.2254,-0.2294,-0.2328,-0.2349,-0.2375,-0.2391,-0.2462,-0.2478,-0.2552,-0.2567,-0.2601,-0.2627,-0.2593,-0.2543,-0.2636,-0.2636,-0.2612,-0.2488,-0.2409,-0.239,-0.2567,-0.2565,-0.2563,-0.2514,0,-0.2214,-0.225,-0.2268,-0.2303,-0.2315,-0.2336,-0.2355,-0.2389,-0.2435,-0.2462,-0.2471,-0.2527,-0.2536,-0.2574,-0.2529,-0.2567,-0.2509,-0.2554,-0.2542,-0.254,-0.2468,-0.2372,-0.2222,-0.2156,-0.2503,-0.2501,-0.25,0,-0.2217,-0.2234,-0.2265,-0.2295,-0.2304,-0.2334,-0.2342,-0.2375,-0.2396,-0.2438,-0.2437,-0.2478,-0.2435,-0.247,-0.2412,-0.2448,-0.2438,-0.2444,-0.2444,-0.2367,-0.2438,-0.2255,-0.2123,-0.2481,-0.2483,-0.2484,-0.2485,0,-0.2168,-0.2216,-0.223,-0.224,-0.2296,-0.2301,-0.2329,-0.2362,-0.2374,-0.2401,-0.2436,-0.2404,-0.2416,-0.2377,-0.2382,-0.2409,-0.2328,-0.238,-0.2272,-0.227,-0.2131,-0.2118,-0.2283,-0.2283,-0.2283,-0.2283,-0.2283,0,-0.2129,-0.2137,-0.2209,-0.2211,-0.2222,-0.2284,-0.2295,-0.2319,-0.2359,-0.237,-0.2401,-0.239,-0.2393,-0.2364,-0.2355,-0.2265,-0.2297,-0.2211,-0.2225,-0.2112,-0.2099,-0.2378,-0.239,-0.2281,-0.2282,-0.2282,-0.2282,0,-0.2055,-0.2106,-0.2118,-0.2179,-0.2195,-0.2204,-0.2259,-0.2274,-0.2327,-0.2336,-0.2344,-0.2371,-0.233,-0.2309,-0.2271,-0.2225,-0.2169,-0.2121,-0.1991,-0.1986,-0.2141,-0.2152,-0.1995,-0.1991,-0.1988,-0.1985,-0.1983,0,-0.2014,-0.2016,-0.2072,-0.2079,-0.2098,-0.2129,-0.2148,-0.2227,-0.2249,-0.2308,-0.2303,-0.2286,-0.2229,-0.2138,-0.2057,-0.1971,-0.2059,-0.1794,-0.1785,-0.2069,-0.2099,-0.2115,-0.2129,-0.1605,-0.16,-0.1595,-0.1592,0,-0.1916,-0.1942,-0.1956,-0.1973,-0.1994,-0.2016,-0.2059,-0.2072,-0.2164,-0.2177,-0.2172,-0.2135,-0.2043,-0.1874,-0.177,-0.1711,-0.1801,-0.1703,-0.2004,-0.1701,-0.1695,-0.1729,-0.1756,-0.1554,-0.1558,-0.1561,-0.1563,-0.1564,-0.1828,-0.1815,-0.1842,-0.1841,-0.1869,-0.1879,-0.1848,-0.1916,-0.1924,-0.1916,-0.1986,-0.1878,-0.1829,-0.1573,-0.1472,-0.1396,-0.1524,-0.1474,-0.1489,-0.1508,-0.1471,-0.1459,-0.1268,-0.127,-0.1272,-0.1274,-0.1275,0,-0.1704,-0.1708,-0.1707,-0.1709,-0.1683,-0.1743,-0.176,-0.1708,-0.1666,-0.1701,-0.1666,-0.147,-0.1339,-0.1296,-0.111,-0.1064,-0.1073,-0.1029,-0.1054,-0.1091,-0.1124,-0.107,-0.076,-0.0758,-0.0757,-0.0756,0,0,-0.1642,-0.1596,-0.1596,-0.1511,-0.151,-0.1421,-0.1392,-0.1349,-0.133,-0.1259,-0.1215,-0.1289,-0.127,-0.1033,-0.0958,-0.0831,-0.0955,-0.0783,-0.1196,-0.1263,-0.1295,-0.1377,-0.1333,0,0,0,0,0]},{"header":{"parameterUnit":"m.s-1","parameterCategory":2,"la1":30.2991,"la2":30.254,"lo1":-89.0895,"lo2":-89.0444,"dy":0.0017,"dx":0.0017,"nx":28,"ny":28,"refTime":"2025-08-03T21:00:00:Z","depth":"2","parameterNumber":3,"parameterNumberName":"V-component_of_CURRENTS"},"data":[0,0,0,0,0,0,0,0,0,0,0,0,0,0,0,0,0,0,0,0,0,0,0,0,0,0,0,0,0,0,0,0,0,0,0,0,0,0,0,0,0,0,0,0,0,0,0,0,0,0,0,0,0,0,0,0,0,0,-0.0486,-0.0486,0,-0.0448,-0.0448,-0.0448,-0.04,-0.0399,-0.0397,-0.0396,-0.0103,-0.0097,-0.009,0,0,0,0,0,0,0,0,0,0,0,0,0,-0.0489,-0.049,-0.0486,-0.0485,-0.0485,-0.0448,-0.0448,-0.0448,-0.04,-0.0398,-0.0397,-0.0396,-0.0105,-0.0097,-0.0089,0,0,0,0,0,0,0,0,0,0,0,0,0,-0.0477,-0.049,-0.0487,-0.0453,-0.0449,-0.0448,-0.0448,-0.0448,-0.04,-0.0398,-0.0397,-0.0395,-0.0108,-0.0098,-0.0088,-0.0062,0,0,-0.0058,-0.0053,0,0,0,0,0,0,0,0,-0.0478,-0.0478,-0.0459,-0.0455,-0.0451,-0.0423,-0.0341,-0.0305,-0.0401,-0.0424,-0.0396,-0.0394,-0.0184,-0.0168,-0.0175,-0.0049,-0.0036,-0.0057,-0.0051,-0.0046,-0.0044,0,0,0,0,0,0,0,-0.0479,-0.0479,-0.0476,-0.0458,-0.0453,-0.0429,-0.0426,-0.0336,-0.0313,-0.0422,-0.0417,-0.0406,-0.0181,-0.0186,-0.0167,-0.0032,-0.0057,-0.0048,-0.0042,-0.0038,0.0194,0.0195,0,0,0,0,0,0,-0.0478,-0.048,-0.0477,-0.0474,-0.0455,-0.043,-0.0428,-0.0437,-0.032,-0.0301,-0.0407,-0.0404,-0.0204,-0.0179,-0.0156,-0.0062,-0.0046,-0.0037,-0.0031,0.0194,0.0194,0.0195,0,0,0,0,0,0,-0.0479,-0.0479,-0.0479,-0.0471,-0.0469,-0.0432,-0.0444,-0.0437,-0.0427,-0.0311,-0.0288,-0.04,-0.0201,-0.017,-0.0083,-0.0051,-0.0033,-0.0023,0.0194,0.0194,0.0194,0.0093,0,0,0,0,0,0,-0.048,-0.0481,-0.0493,-0.0472,-0.0469,-0.0478,-0.0445,-0.0438,-0.0421,-0.0416,-0.0297,-0.027,-0.0197,-0.0099,-0.0073,-0.0037,-0.0016,0.0194,0.0194,0.0194,0.0096,0.009,0.0084,0,0,0,0,0,-0.048,-0.0505,-0.0494,-0.0493,-0.0486,-0.0478,-0.0475,-0.0445,-0.0422,-0.0427,-0.0353,-0.0273,-0.0077,-0.0092,-0.0061,-0.0021,0.0194,0.0194,0.0194,0.0099,0.0091,0.0084,0,0,0,0,0,0,-0.0509,-0.0502,-0.0489,-0.0509,-0.0492,-0.0468,-0.0472,-0.0446,-0.04,-0.0382,-0.0278,-0.0246,-0.0154,-0.0082,-0.0101,0.0045,0.0076,0.0082,-0.0007,-0.0013,-0.0019,-0.0044,-0.0007,0,0,0,0,0,-0.0523,-0.0541,-0.0519,-0.0534,-0.0531,-0.0501,-0.0494,-0.0469,-0.0423,-0.0403,-0.0331,-0.0234,-0.0135,-0.0073,0.001,0.0088,0.0135,0.0136,0.013,0.0124,0.0123,0.0186,0.0185,0.0196,0.0196,0.0196,0,0,-0.0532,-0.0533,-0.054,-0.0541,-0.053,-0.0526,-0.0494,-0.0483,-0.0466,-0.037,-0.0334,-0.0253,-0.0122,-0.0044,0.0007,0.0026,0.0144,0.0124,0.0119,0.0122,0.0186,0.0185,0.0184,0.0196,0.0196,0.0196,0,0,-0.0559,-0.0569,-0.0588,-0.0581,-0.0562,-0.0546,-0.0541,-0.0519,-0.0496,-0.0442,-0.037,-0.0291,-0.0148,-0.0074,-0.0002,0.0011,0.0104,0.0059,0.0023,0.0083,0.0082,0.0082,0.0124,0.0129,0.0063,0.0063,0.0063,0,-0.057,-0.059,-0.0589,-0.0599,-0.059,-0.0555,-0.0555,-0.0535,-0.0485,-0.0456,-0.0431,-0.0259,-0.016,-0.0051,-0.0048,0.0001,0.0042,0.0038,0.0073,0.0074,0.0076,0.012,0.0126,0.0058,0.0059,0.0059,0.006,0,-0.0604,-0.0613,-0.0626,-0.0629,-0.0622,-0.062,-0.0585,-0.0573,-0.053,-0.0491,-0.0399,-0.0304,-0.0194,-0.0149,-0.008,-0.0011,0.0015,0.0048,0.0083,0.0068,0.0116,0.0124,0.0051,0.0053,0.0054,0.0055,0,0,-0.0643,-0.0648,-0.065,-0.0649,-0.0634,-0.0632,-0.0608,-0.057,-0.054,-0.0487,-0.0436,-0.0302,-0.0263,-0.0184,-0.0107,-0.0055,-0.0012,-0.0001,0.0004,0.0025,0.0111,0.0143,0.0156,0.0028,0.0029,0.003,0.0132,0,-0.0665,-0.0689,-0.068,-0.0685,-0.0693,-0.0656,-0.0639,-0.0594,-0.054,-0.0493,-0.0393,-0.0313,-0.0269,-0.0214,-0.016,-0.0039,0.0008,-0.0044,0.0136,0.0141,0.016,0.0166,0.015,0.0242,0.0141,0.0142,0.0143,0,-0.07,-0.0712,-0.0726,-0.071,-0.0709,-0.0704,-0.0665,-0.064,-0.0559,-0.051,-0.0434,-0.0357,-0.0265,-0.023,-0.0071,-0.0104,-0.0007,0.0069,0.0076,0.015,0.019,0.0247,0.0262,0.0158,0.0157,0.0156,0.0155,0,-0.0738,-0.074,-0.0753,-0.0751,-0.0733,-0.0723,-0.0706,-0.0645,-0.062,-0.0529,-0.0491,-0.0379,-0.0311,-0.0192,-0.0038,-0.0044,0.0134,0.0151,0.0262,0.0265,0.031,0.0315,0.0257,0.0257,0.0257,0.0256,0.0256,0,-0.0773,-0.0781,-0.0773,-0.0785,-0.0794,-0.076,-0.0749,-0.0711,-0.0649,-0.0613,-0.0513,-0.0455,-0.0297,-0.0174,-0.0044,0.0135,0.0132,0.0259,0.03,0.0274,0.0274,0.0253,0.0251,0.026,0.0259,0.0259,0.0258,0,-0.0815,-0.0809,-0.0828,-0.0818,-0.0818,-0.0826,-0.0804,-0.0791,-0.0723,-0.0673,-0.0647,-0.0506,-0.0341,-0.0183,0.0029,0.0131,0.0298,0.0363,0.0311,0.0344,0.0386,0.0377,0.0491,0.0493,0.0495,0.0497,0.0498,0,-0.0836,-0.0853,-0.087,-0.0892,-0.0893,-0.0897,-0.0902,-0.0843,-0.0824,-0.0698,-0.0675,-0.0509,-0.0371,-0.0067,0.0141,0.0366,0.0361,0.0477,0.0464,0.0384,0.0413,0.0402,0.0391,0.0478,0.0479,0.048,0.0481,0,-0.0877,-0.0886,-0.0906,-0.096,-0.098,-0.0993,-0.0986,-0.0985,-0.0899,-0.082,-0.0683,-0.0556,-0.0265,-0.0009,0.0269,0.0396,0.0436,0.0501,0.0456,0.0417,0.038,0.0405,0.0394,0.0488,0.0487,0.0487,0.0486,0.0486,-0.0904,-0.0937,-0.0973,-0.1018,-0.1049,-0.1076,-0.1078,-0.1044,-0.0986,-0.0855,-0.0713,-0.0491,-0.0242,0.0159,0.0362,0.0535,0.053,0.0578,0.0573,0.0567,0.0543,0.0511,0.0638,0.0638,0.0638,0.0638,0.0638,0,-0.0933,-0.0972,-0.1027,-0.1081,-0.1125,-0.1121,-0.112,-0.1092,-0.1012,-0.0868,-0.0696,-0.0378,-0.0081,0.0161,0.0451,0.0632,0.0606,0.065,0.0586,0.0579,0.0572,0.0545,0.0643,0.0643,0.0644,0.0644,0,0,-0.0949,-0.1008,-0.1039,-0.1123,-0.1162,-0.1184,-0.1176,-0.1107,-0.1001,-0.083,-0.0652,-0.0419,-0.0089,0.012,0.0352,0.05,0.048,0.0506,0.0487,0.0377,0.0367,0.0522,0.0472,0,0,0,0,0]}],[{"header":{"parameterUnit":"m.s-1","parameterCategory":2,"la1":30.2991,"la2":30.254,"lo1":-89.0895,"lo2":-89.0444,"dy":0.0017,"dx":0.0017,"nx":28,"ny":28,"refTime":"2025-08-03T21:00:00:Z","depth":"4","parameterNumber":2,"parameterNumberName":"U-component_of_CURRENTS"},"data":[0,0,0,0,0,0,0,0,0,0,0,0,0,0,0,0,0,0,0,0,0,0,0,0,0,0,0,0,0,0,0,0,0,0,0,0,0,0,0,0,0,0,0,0,0,0,0,0,0,0,0,0,0,0,0,0,0,0,-0.1518,-0.1519,0,-0.1575,-0.1575,-0.1576,-0.1593,-0.1593,-0.1593,-0.1593,-0.1599,-0.1599,-0.1599,0,0,0,0,0,0,0,0,0,0,0,0,0,-0.1409,-0.1411,-0.1518,-0.1519,-0.152,-0.1574,-0.1575,-0.1576,-0.1593,-0.1593,-0.1593,-0.1592,-0.1598,-0.1599,-0.1599,0,0,0,0,0,0,0,0,0,0,0,0,0,-0.1459,-0.1412,-0.1518,-0.1536,-0.1538,-0.1574,-0.1575,-0.1576,-0.1593,-0.1593,-0.1593,-0.1592,-0.1598,-0.1599,-0.1599,-0.1607,0,0,-0.1601,-0.1601,0,0,0,0,0,0,0,0,-0.1456,-0.1463,-0.1532,-0.1535,-0.1537,-0.1578,-0.1539,-0.1584,-0.1593,-0.1571,-0.1593,-0.1592,-0.1588,-0.1589,-0.1599,-0.1607,-0.1608,-0.1601,-0.1601,-0.1601,-0.1601,0,0,0,0,0,0,0,-0.1453,-0.1461,-0.1539,-0.1533,-0.1536,-0.1536,-0.1542,-0.1548,-0.1578,-0.1573,-0.1575,-0.1583,-0.1589,-0.1599,-0.1599,-0.1608,-0.1601,-0.1601,-0.1601,-0.1602,-0.1681,-0.1683,0,0,0,0,0,0,-0.145,-0.1458,-0.1538,-0.1541,-0.1497,-0.1538,-0.1545,-0.1564,-0.1579,-0.1582,-0.1583,-0.1583,-0.1598,-0.1599,-0.16,-0.1638,-0.1601,-0.1602,-0.1602,-0.1679,-0.1681,-0.1683,0,0,0,0,0,0,-0.1448,-0.1457,-0.1535,-0.1501,-0.1511,-0.154,-0.1561,-0.1565,-0.1595,-0.1588,-0.1589,-0.1611,-0.1598,-0.1599,-0.163,-0.1637,-0.1602,-0.1602,-0.1677,-0.168,-0.1682,-0.1696,0,0,0,0,0,0,-0.1444,-0.1456,-0.1478,-0.1501,-0.1513,-0.1561,-0.1561,-0.1567,-0.16,-0.1602,-0.1612,-0.1611,-0.1598,-0.1629,-0.163,-0.1637,-0.1603,-0.1675,-0.1678,-0.1681,-0.1693,-0.1699,-0.1704,0,0,0,0,0,-0.144,-0.1461,-0.1479,-0.1489,-0.1539,-0.1561,-0.1567,-0.1586,-0.1602,-0.1613,-0.1634,-0.1612,-0.1652,-0.1632,-0.1632,-0.1639,-0.1673,-0.1677,-0.1681,-0.1691,-0.1698,-0.1703,0,0,0,0,0,0,-0.1427,-0.1466,-0.1485,-0.1519,-0.1543,-0.1565,-0.1586,-0.1602,-0.163,-0.1642,-0.1635,-0.1636,-0.1662,-0.1663,-0.1641,-0.1677,-0.1659,-0.1663,-0.1666,-0.1672,-0.1677,-0.1669,-0.1603,0,0,0,0,0,-0.1436,-0.1465,-0.1495,-0.1526,-0.1542,-0.1572,-0.159,-0.1605,-0.1629,-0.1642,-0.1652,-0.1669,-0.1678,-0.1686,-0.1693,-0.1716,-0.1715,-0.1725,-0.173,-0.1734,-0.1732,-0.1758,-0.1764,-0.1697,-0.1697,-0.1697,0,0,-0.1441,-0.1468,-0.1485,-0.1526,-0.1552,-0.1575,-0.1583,-0.1618,-0.1637,-0.1638,-0.1677,-0.1686,-0.169,-0.1711,-0.1723,-0.1713,-0.1753,-0.1739,-0.1742,-0.1738,-0.1763,-0.1769,-0.1774,-0.1699,-0.1699,-0.1699,0,0,-0.1456,-0.1491,-0.1518,-0.1537,-0.1579,-0.1594,-0.1609,-0.1646,-0.1665,-0.1704,-0.1707,-0.1725,-0.1753,-0.1746,-0.1747,-0.1791,-0.1779,-0.1805,-0.182,-0.1846,-0.1851,-0.1856,-0.1854,-0.1858,-0.1808,-0.1808,-0.1808,0,-0.1465,-0.1502,-0.1528,-0.1553,-0.1576,-0.1605,-0.1634,-0.1652,-0.1694,-0.1717,-0.172,-0.1773,-0.1761,-0.1783,-0.179,-0.1796,-0.1812,-0.1789,-0.185,-0.1854,-0.1859,-0.1856,-0.186,-0.1809,-0.1809,-0.1809,-0.1809,0,-0.1489,-0.1525,-0.1543,-0.1586,-0.161,-0.164,-0.1666,-0.1698,-0.1731,-0.1751,-0.1797,-0.1798,-0.1828,-0.1826,-0.1813,-0.1843,-0.1845,-0.1849,-0.1825,-0.1866,-0.1861,-0.1865,-0.1811,-0.181,-0.181,-0.181,0,0,-0.149,-0.1551,-0.156,-0.1591,-0.1633,-0.1658,-0.1692,-0.1734,-0.1775,-0.1804,-0.1854,-0.1851,-0.1868,-0.1871,-0.1868,-0.1877,-0.1897,-0.1879,-0.188,-0.1861,-0.1951,-0.1789,-0.1778,-0.1927,-0.1928,-0.1929,-0.1931,0,-0.1507,-0.1564,-0.1588,-0.1641,-0.1671,-0.1704,-0.1738,-0.1778,-0.1814,-0.1865,-0.1872,-0.1912,-0.1882,-0.1906,-0.1911,-0.1908,-0.1913,-0.1895,-0.1929,-0.1929,-0.1766,-0.1778,-0.1932,-0.1934,-0.1935,-0.1936,-0.1936,0,-0.1514,-0.1556,-0.1615,-0.1685,-0.1705,-0.174,-0.1814,-0.1846,-0.1902,-0.1933,-0.197,-0.1985,-0.1994,-0.1973,-0.1979,-0.1981,-0.1964,-0.1954,-0.1955,-0.1799,-0.1774,-0.1891,-0.1944,-0.1943,-0.1943,-0.1942,-0.1942,0,-0.1495,-0.1571,-0.1626,-0.1646,-0.1725,-0.1769,-0.1815,-0.1876,-0.1909,-0.1981,-0.2012,-0.2047,-0.2058,-0.2064,-0.201,-0.202,-0.2011,-0.2024,-0.1861,-0.185,-0.1989,-0.1985,-0.2031,-0.2031,-0.2031,-0.2031,-0.2031,0,-0.1482,-0.1527,-0.1631,-0.1656,-0.1724,-0.1787,-0.1857,-0.1903,-0.1973,-0.2001,-0.205,-0.2058,-0.2085,-0.2071,-0.2042,-0.1938,-0.2035,-0.1851,-0.1837,-0.1995,-0.1992,-0.1991,-0.1987,-0.2031,-0.2031,-0.2031,-0.2031,0,-0.1429,-0.1503,-0.1565,-0.1674,-0.1712,-0.176,-0.1858,-0.1899,-0.1978,-0.2016,-0.2038,-0.2075,-0.2043,-0.2033,-0.2021,-0.1943,-0.1888,-0.1829,-0.1975,-0.1972,-0.171,-0.1707,-0.1667,-0.1661,-0.1656,-0.1652,-0.1649,0,-0.1401,-0.1431,-0.1556,-0.1593,-0.1644,-0.1728,-0.1774,-0.1879,-0.191,-0.1993,-0.1993,-0.2,-0.1997,-0.1838,-0.1856,-0.1784,-0.1754,-0.1726,-0.1728,-0.1681,-0.1672,-0.1677,-0.168,-0.1641,-0.164,-0.1639,-0.1637,0,-0.1328,-0.1388,-0.1438,-0.1516,-0.1582,-0.164,-0.1718,-0.1728,-0.1832,-0.1928,-0.1876,-0.1833,-0.1781,-0.173,-0.1664,-0.1622,-0.175,-0.1675,-0.1686,-0.1687,-0.1649,-0.1646,-0.1655,-0.162,-0.1623,-0.1624,-0.1625,0,-0.1264,-0.128,-0.1356,-0.1406,-0.1486,-0.1512,-0.1575,-0.1601,-0.1642,-0.1741,-0.1718,-0.1717,-0.1763,-0.1644,-0.1595,-0.1521,-0.1504,-0.1465,-0.1487,-0.1506,-0.1444,-0.1372,-0.1233,0,0,0,0,0,-0.1187,-0.1193,-0.1235,-0.1288,-0.1361,-0.1401,-0.1511,-0.1578,-0.1686,-0.1602,-0.1653,-0.1592,-0.1498,-0.1503,-0.1387,-0.152,-0.1514,-0.1381,-0.1483,-0.1526,-0.1546,-0.1484,0,0,0,0,0,0,-0.1138,-0.1174,-0.119,-0.1169,-0.1175,-0.1242,-0.1301,-0.1384,-0.1349,-0.1456,-0.1405,-0.1485,-0.1409,-0.1516,-0.1344,-0.1345,-0.1375,-0.1395,-0.139,-0.1515,-0.1533,-0.1549,-0.1492,0,0,0,0,0]},{"header":{"parameterUnit":"m.s-1","parameterCategory":2,"la1":30.2991,"la2":30.254,"lo1":-89.0895,"lo2":-89.0444,"dy":0.0017,"dx":0.0017,"nx":28,"ny":28,"refTime":"2025-08-03T21:00:00:Z","depth":"4","parameterNumber":3,"parameterNumberName":"V-component_of_CURRENTS"},"data":[0,0,0,0,0,0,0,0,0,0,0,0,0,0,0,0,0,0,0,0,0,0,0,0,0,0,0,0,0,0,0,0,0,0,0,0,0,0,0,0,0,0,0,0,0,0,0,0,0,0,0,0,0,0,0,0,0,0,-0.0406,-0.0406,0,-0.0408,-0.0408,-0.0408,-0.0385,-0.0384,-0.0383,-0.0382,-0.0355,-0.0355,-0.0355,0,0,0,0,0,0,0,0,0,0,0,0,0,-0.0394,-0.0395,-0.0406,-0.0406,-0.0406,-0.0408,-0.0408,-0.0408,-0.0385,-0.0384,-0.0383,-0.0382,-0.0355,-0.0355,-0.0355,0,0,0,0,0,0,0,0,0,0,0,0,0,-0.04,-0.0395,-0.0406,-0.0392,-0.0391,-0.0408,-0.0408,-0.0408,-0.0385,-0.0384,-0.0382,-0.0381,-0.0355,-0.0355,-0.0355,-0.0382,0,0,-0.0356,-0.0356,0,0,0,0,0,0,0,0,-0.04,-0.0401,-0.0395,-0.0393,-0.0392,-0.0393,-0.0394,-0.0397,-0.0385,-0.039,-0.0382,-0.0381,-0.0364,-0.0364,-0.0371,-0.0381,-0.0379,-0.0356,-0.0356,-0.0356,-0.0356,0,0,0,0,0,0,0,-0.04,-0.0401,-0.0409,-0.0394,-0.0393,-0.039,-0.039,-0.0395,-0.0386,-0.0389,-0.0387,-0.0384,-0.0364,-0.0371,-0.037,-0.0379,-0.0356,-0.0356,-0.0356,-0.0356,-0.0365,-0.0365,0,0,0,0,0,0,-0.0396,-0.0401,-0.0409,-0.0409,-0.039,-0.0391,-0.0391,-0.0396,-0.0386,-0.0383,-0.0385,-0.0383,-0.0371,-0.037,-0.0369,-0.0369,-0.0356,-0.0356,-0.0356,-0.0365,-0.0365,-0.0365,0,0,0,0,0,0,-0.0396,-0.0397,-0.0409,-0.0402,-0.0403,-0.0392,-0.0398,-0.0396,-0.0401,-0.0383,-0.0379,-0.039,-0.037,-0.0368,-0.0363,-0.0369,-0.0356,-0.0356,-0.0365,-0.0365,-0.0365,-0.0389,0,0,0,0,0,0,-0.0395,-0.0397,-0.0407,-0.0402,-0.0403,-0.0422,-0.0399,-0.0397,-0.04,-0.0397,-0.0387,-0.0383,-0.0369,-0.0363,-0.0363,-0.0369,-0.0356,-0.0365,-0.0365,-0.0365,-0.0388,-0.039,-0.0392,0,0,0,0,0,-0.0395,-0.0414,-0.0408,-0.0409,-0.0415,-0.0422,-0.0424,-0.0413,-0.0401,-0.0411,-0.0393,-0.0383,-0.0365,-0.0364,-0.0364,-0.0369,-0.0364,-0.0365,-0.0365,-0.0387,-0.039,-0.0392,0,0,0,0,0,0,-0.0416,-0.0413,-0.0406,-0.0424,-0.0423,-0.0417,-0.0429,-0.0419,-0.0416,-0.041,-0.039,-0.0385,-0.0383,-0.0375,-0.0374,-0.0372,-0.0362,-0.0363,-0.0379,-0.0381,-0.0383,-0.0368,-0.0356,0,0,0,0,0,-0.0425,-0.0439,-0.0431,-0.0446,-0.0448,-0.044,-0.0443,-0.0434,-0.0426,-0.0424,-0.0415,-0.0401,-0.0388,-0.0382,-0.0377,-0.0381,-0.0334,-0.0383,-0.0385,-0.0387,-0.0374,-0.0285,-0.0277,-0.0367,-0.0367,-0.0367,0,0,-0.0437,-0.0437,-0.0445,-0.0451,-0.0452,-0.0459,-0.044,-0.0447,-0.0447,-0.0422,-0.0428,-0.0414,-0.0392,-0.039,-0.0388,-0.0381,-0.0342,-0.0387,-0.0389,-0.0374,-0.0284,-0.0275,-0.0267,-0.0367,-0.0367,-0.0367,0,0,-0.0462,-0.0468,-0.0484,-0.0487,-0.0486,-0.0481,-0.0483,-0.0481,-0.0475,-0.0478,-0.0451,-0.0432,-0.0435,-0.0405,-0.0392,-0.0402,-0.0357,-0.0411,-0.0405,-0.032,-0.0311,-0.0303,-0.0253,-0.024,-0.0408,-0.0409,-0.0409,0,-0.0473,-0.0489,-0.049,-0.0502,-0.0504,-0.0491,-0.05,-0.0499,-0.0493,-0.0478,-0.0483,-0.0443,-0.0436,-0.0394,-0.0401,-0.0405,-0.0357,-0.04,-0.032,-0.031,-0.0301,-0.0252,-0.0237,-0.041,-0.041,-0.0409,-0.0409,0,-0.0504,-0.0516,-0.0528,-0.0535,-0.0541,-0.0551,-0.054,-0.0541,-0.0532,-0.0514,-0.0484,-0.0462,-0.0427,-0.0431,-0.0423,-0.036,-0.035,-0.0334,-0.031,-0.0293,-0.0244,-0.0227,-0.0411,-0.0411,-0.0411,-0.041,0,0,-0.0524,-0.0543,-0.0547,-0.0551,-0.0557,-0.0563,-0.0563,-0.0546,-0.0527,-0.0516,-0.0479,-0.046,-0.0431,-0.0412,-0.0391,-0.0327,-0.0244,-0.0308,-0.0303,-0.0253,-0.0069,-0.0101,-0.0086,-0.0204,-0.0201,-0.0198,-0.0069,0,-0.0542,-0.0571,-0.0572,-0.0592,-0.0603,-0.059,-0.0588,-0.057,-0.0547,-0.0512,-0.046,-0.0429,-0.0427,-0.0408,-0.034,-0.027,-0.0199,-0.0282,-0.0098,-0.0093,-0.0116,-0.0067,-0.0189,-0.0057,-0.0053,-0.005,-0.0048,0,-0.0566,-0.0581,-0.0608,-0.061,-0.0612,-0.0622,-0.06,-0.0594,-0.0536,-0.0513,-0.0454,-0.0413,-0.0335,-0.0331,-0.0173,-0.0224,-0.0145,-0.0086,-0.0079,-0.0082,-0.0093,-0.0071,-0.0018,-0.0021,-0.0023,-0.0025,-0.0027,0,-0.0581,-0.06,-0.0622,-0.0628,-0.0634,-0.0636,-0.0632,-0.0594,-0.058,-0.0505,-0.0477,-0.0372,-0.0327,-0.02,-0.0107,-0.0122,0.0075,0.0073,0.0126,0.0123,0.0122,0.0112,0.0219,0.0219,0.0218,0.0218,0.0218,0,-0.0597,-0.0614,-0.0634,-0.0649,-0.0667,-0.0657,-0.0655,-0.0632,-0.0584,-0.0552,-0.0476,-0.0421,-0.0286,-0.0174,-0.0074,0.0065,0.0109,0.0146,0.017,0.0102,0.0089,0.0132,0.0121,0.0223,0.0222,0.0221,0.022,0,-0.0614,-0.0627,-0.0657,-0.0673,-0.0682,-0.0697,-0.0698,-0.0687,-0.0635,-0.0586,-0.0562,-0.0444,-0.0299,-0.0168,0.0029,0.0091,0.0235,0.0279,0.0179,0.0192,0.0219,0.0204,0.0365,0.0365,0.0365,0.0366,0.0366,0,-0.0622,-0.0643,-0.0689,-0.0718,-0.0733,-0.0752,-0.0765,-0.0727,-0.0706,-0.0597,-0.0568,-0.0426,-0.0337,-0.0078,0.005,0.0252,0.0271,0.0336,0.0297,0.0234,0.0242,0.0226,0.0212,0.0366,0.0366,0.0366,0.0366,0,-0.0639,-0.0665,-0.0694,-0.0761,-0.0793,-0.0815,-0.0819,-0.0806,-0.074,-0.0691,-0.0545,-0.0406,-0.0245,-0.007,0.0077,0.0219,0.0289,0.034,0.034,0.0304,0.0238,0.0242,0.0227,0.0367,0.0367,0.0367,0.0367,0,-0.0653,-0.0686,-0.0738,-0.0788,-0.0839,-0.0859,-0.0857,-0.0805,-0.0767,-0.0634,-0.0585,-0.0396,-0.0283,-0.0085,0.0057,0.0183,0.0212,0.0242,0.0248,0.0249,0.016,0.0056,0.0173,0,0,0,0,0,-0.0659,-0.07,-0.0758,-0.0814,-0.0866,-0.0889,-0.0884,-0.0864,-0.0796,-0.0694,-0.0631,-0.0471,-0.0235,-0.0128,-0.0003,0.0032,0.0203,0.0178,0.0233,0.0373,0.0372,0.0283,0,0,0,0,0,0,-0.0666,-0.0726,-0.0757,-0.0822,-0.0865,-0.0907,-0.0906,-0.0861,-0.0788,-0.0699,-0.0569,-0.0461,-0.0238,-0.0308,-0.0007,0.0033,0.008,0.0299,0.0302,0.0373,0.0372,0.0371,0.028,0,0,0,0,0]}]]